Temperature
1 2 1 1 2 1 1 1 1 1 1 2 1 -0 0 0 0 0 0 -0 -0 -0 -0 -0 0 0 0 0 0 -0 -0 0 0 0 0 0 0 0 0 0 0 1 1 1
0 2 1 1 1 1 1 1 1 1 1 0 -0 -0 -0 -0 -0 -0 -0 -0 -1 -1 -1 -0 -0 -0 -0 -0 -0 -0 -0 -0 -0 -0 -0 -0 -0 -0 -0 -0 0 0 0 0
0 0 1 1 0 0 -0 -1 -0 0 0 -1 -1 -1 -1 -1 -1 -1 -1 -1 -1 -1 -1 -1 -1 -1 -1 -1 -1 -1 -1 -1 -1 -1 -1 -1 -1 -1 -1 -1 -0 -0 -0 -0
-1 -0 1 1 -0 -0 -1 -1 -1 -1 -1 -2 -2 -1 -1 -1 -1 -1 -1 -1 -1 -1 -1 -1 -1 -1 -1 -1 -1 -1 -1 -1 -1 -1 -1 -1 -1 -1 -1 -1 -1 -1 -1 -1
-2 -1 -1 0 -0 -1 -1 -1 -2 -2 -2 -2 -2 -2 -2 -1 -1 -1 -2 -2 -2 -2 -1 -1 -1 -1 -1 -2 -2 -2 -2 -2 -2 -2 -2 -2 -2 -2 -1 -2 -1 -1 -1 -1
-2 -1 0 1 -1 -1 -1 -1 -1 -2 -2 -2 -2 -2 -2 -2 -2 -2 -2 -2 -2 -2 -2 -2 -2 -2 -2 -2 -2 -2 -2 -2 -2 -2 -2 -2 -2 -2 -2 -2 -2 -2 -2 -2
-2 -2 -1 -1 -1 -1 -0 -0 -1 -1 -2 -2 -3 -2 -2 -2 -2 -2 -2 -2 -2 -2 -2 -2 -2 -2 -2 -2 -2 -2 -2 -3 -2 -2 -2 -2 -3 -3 -3 -3 -3 -3 -3 -3
-3 -2 -1 -2 -2 -1 -1 -1 -1 -1 -2 -2 -2 -2 -2 -3 -3 -3 -3 -2 -2 -2 -3 -3 -3 -3 -2 -3 -3 -3 -3 -3 -3 -3 -3 -3 -3 -3 -3 -3 -3 -3 -3 -3
-2 -1 -2 -2 -1 -1 -1 -1 -1 -1 -2 -2 -2 -2 -3 -3 -3 -3 -3 -3 -3 -3 -3 -3 -3 -3 -3 -3 -3 -3 -3 -3 -3 -3 -3 -3 -4 -4 -4 -4 -4 -4 -4 -4
-4 -3 -3 -2 -1 -1 -1 -1 -1 -1 -2 -2 -2 -3 -3 -3 -3 -3 -3 -3 -3 -3 -3 -3 -3 -3 -3 -3 -3 -4 -4 -4 -4 -4 -4 -4 -4 -4 -4 -4 -5 -5 -5 -5
-4 -4 -3 -2 -1 -1 -1 -1 -2 -2 -2 -2 -3 -3 -3 -3 -4 -4 -4 -4 -4 -4 -4 -4 -4 -4 -4 -4 -4 -4 -4 -4 -4 -4 -4 -4 -5 -5 -5 -5 -5 -5 -5 -5
-3 -3 -3 -2 -1 -1 -2 -2 -2 -2 -2 -3 -3 -3 -3 -4 -4 -4 -4 -4 -4 -4 -4 -4 -4 -4 -4 -4 -4 -4 -4 -4 -5 -5 -5 -5 -5 -5 -5 -5 -5 -6 -6 -6
-2 -1 -2 -2 -2 -2 -2 -2 -2 -3 -3 -3 -3 -4 -4 -4 -4 -4 -5 -5 -5 -5 -5 -5 -5 -4 -4 -5 -5 -5 -5 -5 -5 -5 -5 -5 -5 -5 -5 -5 -6 -6 -6 -6
-2 -2 -3 -2 -2 -2 -2 -3 -3 -3 -3 -3 -4 -4 -4 -4 -5 -5 -5 -5 -5 -5 -5 -5 -5 -5 -5 -5 -5 -5 -5 -5 -5 -5 -5 -5 -6 -6 -6 -6 -6 -6 -6 -6
-3 -2 -3 -3 -3 -3 -3 -3 -3 -3 -4 -4 -4 -4 -5 -5 -5 -5 -5 -5 -5 -5 -5 -5 -5 -5 -5 -5 -5 -5 -5 -5 -5 -5 -6 -6 -6 -6 -6 -6 -6 -6 -6 -6
-3 -3 -3 -3 -3 -3 -3 -3 -4 -4 -4 -4 -4 -5 -5 -5 -5 -5 -5 -5 -5 -5 -5 -5 -5 -5 -5 -5 -5 -5 -5 -6 -6 -6 -6 -6 -6 -6 -6 -6 -6 -6 -6 -6
-4 -4 -4 -4 -4 -4 -4 -4 -4 -4 -4 -5 -5 -5 -5 -5 -5 -5 -5 -6 -6 -5 -6 -5 -5 -5 -5 -6 -6 -6 -6 -6 -6 -6 -6 -6 -6 -6 -6 -7 -7 -7 -7 -7
-3 -3 -4 -4 -4 -4 -4 -4 -4 -4 -5 -5 -5 -5 -5 -5 -6 -6 -6 -6 -6 -6 -6 -6 -6 -6 -6 -6 -6 -6 -6 -6 -6 -6 -6 -6 -6 -7 -7 -7 -7 -7 -7 -7
-4 -4 -4 -4 -4 -4 -4 -4 -5 -5 -5 -5 -5 -5 -6 -6 -6 -6 -6 -6 -6 -6 -6 -6 -6 -6 -6 -6 -6 -6 -6 -6 -6 -6 -6 -7 -7 -7 -7 -7 -7 -7 -7 -7
-4 -4 -4 -4 -5 -5 -5 -5 -5 -5 -5 -5 -6 -6 -6 -6 -6 -6 -6 -6 -6 -6 -6 -6 -6 -6 -6 -6 -6 -6 -7 -7 -6 -7 -7 -7 -7 -7 -7 -7 -7 -7 -7 -7
-4 -4 -4 -5 -5 -5 -5 -5 -5 -5 -5 -6 -6 -6 -6 -6 -6 -6 -6 -6 -6 -6 -6 -7 -7 -7 -7 -7 -7 -7 -7 -7 -7 -7 -7 -7 -7 -7 -7 -7 -7 -7 -7 -7
-4 -5 -5 -5 -5 -5 -5 -5 -5 -6 -6 -6 -6 -6 -6 -6 -6 -6 -6 -6 -7 -7 -7 -7 -7 -7 -7 -7 -7 -7 -7 -7 -7 -7 -7 -7 -7 -7 -7 -7 -7 -7 -7 -7
-5 -5 -5 -5 -5 -5 -5 -5 -6 -6 -6 -6 -6 -6 -6 -6 -6 -6 -6 -7 -7 -7 -7 -7 -7 -7 -7 -7 -7 -7 -7 -7 -7 -7 -7 -7 -7 -7 -7 -7 -7 -7 -7 -7
-5 -5 -5 -5 -5 -5 -6 -6 -6 -6 -6 -6 -6 -6 -6 -6 -6 -7 -7 -7 -7 -7 -7 -7 -7 -7 -7 -7 -7 -7 -7 -7 -7 -7 -7 -7 -7 -8 -7 -7 -7 -7 -8 -7
-5 -5 -6 -6 -6 -6 -6 -6 -6 -6 -6 -6 -6 -6 -7 -7 -7 -7 -7 -7 -7 -7 -7 -7 -7 -7 -7 -7 -7 -7 -7 -7 -7 -7 -7 -7 -7 -8 -8 -8 -8 -8 -8 -7
-6 -6 -6 -6 -6 -6 -6 -6 -6 -6 -6 -6 -6 -7 -7 -7 -7 -7 -7 -7 -7 -7 -7 -7 -7 -7 -7 -7 -7 -7 -7 -7 -7 -7 -7 -7 -7 -8 -8 -8 -8 -8 -8 -8
-6 -6 -6 -6 -6 -6 -6 -6 -6 -6 -6 -7 -7 -7 -7 -7 -7 -7 -7 -7 -7 -7 -7 -7 -7 -8 -8 -8 -7 -7 -7 -7 -7 -8 -8 -8 -8 -8 -8 -8 -8 -8 -8 -8
Wind_Speed
6 6 3 4 6 5 6 7 7 8 7 8 6 5 4 3 2 1 2 2 3 3 3 4 4 4 4 4 3 3 2 2 3 3 3 2 2 2 2 2 2 2 2 1
3 3 3 5 7 7 7 6 7 7 9 5 4 2 3 2 2 2 2 2 3 3 4 4 4 4 4 4 3 3 2 3 3 3 3 3 2 2 2 2 2 1 1 1
3 2 2 6 7 7 5 4 5 8 8 3 3 3 4 3 3 3 3 3 3 3 3 4 5 4 4 4 3 3 2 3 3 3 3 3 2 2 2 2 1 1 1 1
1 2 4 6 1 4 5 4 5 5 3 3 4 4 3 2 2 3 4 4 3 3 3 4 4 4 4 3 3 2 3 3 3 3 3 2 2 2 2 1 1 1 1 1
2 2 6 6 2 3 4 4 4 5 5 4 2 2 3 2 2 3 4 4 3 3 3 3 4 4 3 3 3 3 3 3 3 3 3 3 2 2 2 1 1 1 1 1
2 3 5 5 1 1 3 4 4 4 4 3 0 2 4 3 3 3 3 3 3 3 2 3 3 3 3 2 3 3 3 3 3 3 2 2 2 2 2 1 1 1 1 1
4 4 7 4 1 3 3 5 3 3 4 3 3 5 4 3 3 2 3 3 3 2 2 2 3 3 2 3 3 3 3 3 3 3 2 2 2 2 2 2 2 1 2 2
4 4 7 2 4 5 5 2 2 2 3 3 3 3 2 2 2 3 3 3 3 3 3 3 3 2 2 3 4 3 3 3 3 3 3 2 2 2 2 1 1 1 2 2
7 6 3 3 5 4 3 3 3 3 3 3 3 3 2 2 2 2 3 3 3 2 3 4 3 2 2 3 3 3 3 3 3 3 3 3 2 1 1 1 1 1 1 2
4 6 5 3 3 2 3 3 3 2 3 3 3 3 2 2 2 2 3 3 3 3 3 4 4 3 2 3 3 3 3 3 3 3 3 3 2 2 1 1 1 1 1 1
5 5 4 4 4 4 3 2 1 1 2 3 3 2 2 2 2 2 2 3 3 2 3 4 4 4 4 4 3 3 3 3 3 2 2 2 2 2 2 1 1 1 1 1
7 6 4 5 3 2 2 2 2 2 1 1 2 3 2 2 2 2 2 2 2 3 2 3 3 4 4 3 3 2 3 3 2 2 2 2 2 3 5 4 5 4 4 3
6 4 4 4 3 2 2 3 2 2 2 2 2 2 2 2 2 2 2 2 2 3 3 3 3 3 4 3 2 2 2 2 2 2 2 2 2 2 3 4 6 6 5 5
4 2 3 3 3 2 2 2 1 0 1 1 1 0 1 1 1 2 2 3 3 2 3 3 3 3 4 3 2 2 2 2 2 2 1 1 1 2 2 2 3 3 4 5
3 3 4 3 2 1 0 1 1 0 0 0 0 0 1 1 2 3 3 2 2 2 3 3 3 4 4 3 2 2 2 1 1 1 1 1 1 1 1 2 2 2 3 3
3 1 2 2 2 1 1 1 2 2 1 1 1 2 2 2 2 2 3 2 1 2 3 3 3 4 3 3 2 2 2 2 2 1 1 1 1 1 1 1 1 2 2 2
2 3 3 3 3 3 3 3 3 3 2 2 3 2 1 1 1 2 3 2 2 3 3 3 3 4 3 2 1 1 1 2 2 2 1 1 1 1 1 1 1 2 2 3
6 6 5 5 5 4 3 2 2 2 2 2 2 1 1 1 2 3 3 3 3 3 3 3 3 3 2 2 1 1 1 1 1 1 1 1 1 1 1 1 2 2 2 3
2 3 2 2 3 3 2 2 2 2 1 1 1 2 2 2 2 2 2 2 2 3 3 3 4 2 2 2 1 0 0 1 1 1 1 2 2 1 1 1 2 2 2 2
0 0 1 1 1 1 2 1 1 1 1 1 1 1 1 2 2 2 1 2 2 3 3 3 3 2 2 2 2 0 0 1 1 1 1 1 1 2 1 1 1 1 2 2
0 0 1 1 1 1 1 2 2 1 1 1 2 2 2 2 1 1 1 2 3 3 3 3 2 2 2 2 2 0 1 1 1 1 1 1 1 1 1 1 2 2 2 2
1 1 1 1 1 1 1 1 1 1 1 1 1 1 1 1 1 1 1 2 3 4 2 2 2 2 2 2 1 1 1 1 1 1 1 1 1 1 2 2 2 2 2 2
1 1 1 1 2 1 0 0 1 1 1 1 1 1 2 2 1 1 2 2 2 3 2 2 2 3 3 2 1 1 1 1 1 1 1 1 1 2 2 2 2 2 2 2
1 1 1 1 2 1 1 1 1 1 1 1 2 2 1 1 1 2 2 3 3 3 2 2 3 3 4 2 1 1 1 1 1 1 1 2 2 2 2 2 2 2 2 3
1 1 1 2 1 1 1 1 0 0 0 1 1 1 1 1 2 2 2 2 2 2 2 3 4 4 3 2 2 1 1 1 1 1 1 1 2 2 2 2 2 2 3 3
1 1 1 2 2 1 1 1 1 1 1 1 1 1 1 1 1 1 1 1 1 2 2 2 2 2 2 2 2 2 2 2 3 2 2 2 2 2 2 2 3 3 3 3
1 1 0 0 0 1 1 1 1 1 1 1 1 1 1 1 0 0 0 1 1 1 1 1 1 1 1 2 2 2 2 2 2 2 2 2 2 2 2 3 3 3 3 3
Wind_Direction
252 256 231 238 246 219 205 206 213 239 239 263 268 266 271 276 289 331 342 339 337 330 325 327 334 333 334 332 334 334 336 330 318 318 318 321 320 313 319 309 300 291 295 293
278 263 234 266 263 238 233 227 229 249 265 271 288 294 297 285 292 310 315 322 324 325 326 324 325 325 329 329 327 335 333 323 319 324 324 323 314 318 323 314 314 319 311 302
263 306 341 279 251 219 213 217 199 229 246 266 294 284 266 273 292 296 299 309 310 308 310 311 313 315 319 315 322 343 345 337 334 333 331 325 324 335 326 316 317 311 308 314
232 46 242 253 232 187 193 237 223 229 252 245 248 261 259 256 271 300 309 309 307 309 311 309 315 323 324 331 344 351 348 345 345 343 333 331 342 341 333 320 306 293 304 311
158 229 273 285 238 165 183 257 230 231 259 274 291 314 297 279 284 279 292 301 297 295 298 309 320 326 338 347 352 356 350 340 337 336 333 338 339 331 329 329 336 340 346 343
162 199 243 260 245 171 120 285 244 214 238 260 11 274 275 299 312 310 316 318 316 320 325 326 322 329 348 353 356 346 335 331 332 334 336 331 319 324 343 352 346 355 8 358
197 226 259 264 262 120 159 255 264 209 218 203 213 232 265 301 315 320 317 323 333 335 334 324 327 345 357 1 347 327 327 333 336 332 329 322 327 343 354 357 4 18 17 359
180 212 253 226 142 179 220 251 221 211 212 220 237 257 275 300 319 332 337 338 341 343 339 338 342 357 6 349 330 333 344 351 343 337 337 343 345 347 350 2 18 24 24 10
197 217 250 186 196 219 203 217 225 205 219 210 230 257 287 309 321 330 334 334 339 342 345 348 352 7 360 336 335 346 358 356 348 349 355 353 343 331 350 15 18 7 17 5
241 258 254 238 238 261 233 228 235 214 210 204 224 248 273 295 315 326 329 331 340 350 349 343 344 352 340 333 343 354 356 352 354 358 1 6 2 357 359 353 347 350 359 359
248 267 289 267 247 251 250 231 222 248 230 221 209 235 248 268 291 302 316 326 337 334 327 327 335 346 348 349 352 352 352 349 350 358 357 5 10 2 351 327 312 328 305 285
236 231 217 246 251 230 211 221 220 214 242 240 210 226 244 261 272 286 301 316 327 326 324 323 331 337 341 344 349 350 351 347 341 343 351 1 11 9 11 9 10 8 9 7
243 244 231 251 261 247 225 226 219 212 215 233 247 220 219 256 275 286 297 307 308 310 314 318 325 329 330 334 346 352 333 332 338 347 349 350 358 4 359 5 12 17 17 15
243 234 255 251 250 250 230 227 212 196 257 225 215 207 226 276 288 291 289 291 297 305 310 313 319 319 320 330 343 341 329 337 346 336 335 335 341 348 347 351 355 0 4 11
264 232 226 236 236 262 218 142 125 193 319 349 163 199 234 259 275 286 293 304 316 320 317 316 319 316 322 329 340 336 329 327 331 328 332 334 343 350 349 348 348 345 350 358
279 264 214 211 226 238 206 183 192 233 244 256 262 260 253 252 272 296 308 317 318 312 310 310 308 309 318 326 333 332 334 346 354 350 348 352 352 353 342 336 337 339 332 329
211 234 230 232 237 243 230 219 213 218 228 240 253 262 260 271 309 313 313 313 298 295 301 301 300 311 317 320 316 316 328 336 357 1 351 338 336 332 321 319 317 315 313 316
224 226 220 216 220 230 235 226 216 214 224 240 248 240 236 246 269 286 305 324 327 324 316 305 303 311 322 326 312 299 310 319 325 329 332 332 331 324 315 307 307 311 319 323
221 214 214 209 203 200 204 208 219 225 228 212 207 230 250 264 272 283 308 324 315 310 309 312 330 345 322 315 332 261 292 316 328 326 322 328 340 327 315 310 311 315 318 323
280 169 153 167 180 183 197 204 193 203 221 197 194 234 284 289 287 287 292 287 280 277 288 303 320 321 310 303 330 306 290 296 304 315 320 318 314 312 311 311 314 313 316 315
257 164 151 166 204 209 191 187 182 204 232 197 193 224 253 281 287 256 269 301 303 303 309 321 327 305 298 301 321 309 296 298 304 307 310 311 316 317 313 314 312 311 309 309
216 191 194 189 183 225 234 194 183 188 197 215 223 228 253 294 303 286 259 262 284 309 323 316 311 309 315 336 10 13 339 326 319 318 312 311 310 307 305 305 300 298 294 293
218 202 198 198 196 209 268 204 188 188 202 216 220 225 234 250 248 249 290 293 293 313 329 309 318 335 347 14 21 5 343 333 322 314 303 294 288 284 283 288 291 290 286 287
208 194 199 185 150 148 191 265 248 225 221 237 238 230 220 240 277 269 268 298 318 325 330 325 346 356 6 26 8 354 339 329 318 306 296 292 288 285 282 283 288 292 293 296
196 181 157 149 163 202 220 201 130 126 243 286 279 263 247 230 233 268 287 295 318 345 347 348 0 5 13 3 355 343 326 313 307 309 308 307 299 294 290 288 289 292 294 295
193 204 212 216 217 212 190 174 192 220 222 284 308 295 292 287 260 272 285 307 322 349 354 343 344 354 358 355 350 341 332 328 335 337 321 307 300 295 290 292 293 293 293 291
169 172 163 358 255 199 180 185 201 224 226 225 259 277 282 297 317 347 356 345 336 337 334 330 338 344 345 342 337 332 331 329 323 316 311 304 299 294 292 293 295 297 295 293
Height
1486 1483 1483 1483 1482 1481 1483 1483 1484 1479 1478 1473 1472 1471 1470 1469 1468 1467 1466 1465 1464 1463 1461 1460 1459 1457 1456 1454 1453 1451 1450 1449 1448 1447 1446 1445 1444 1444 1443 1443 1443 1443 1442 1442
1486 1481 1481 1481 1479 1479 1479 1479 1478 1476 1475 1471 1470 1470 1469 1467 1466 1465 1465 1464 1462 1461 1460 1458 1457 1455 1454 1453 1451 1450 1448 1447 1446 1445 1444 1443 1442 1442 1441 1441 1441 1440 1440 1439
1486 1484 1482 1481 1476 1476 1477 1476 1475 1474 1471 1470 1470 1468 1467 1466 1465 1464 1463 1462 1461 1459 1458 1457 1455 1454 1452 1451 1450 1448 1447 1446 1445 1443 1442 1441 1440 1440 1439 1438 1438 1438 1437 1437
1490 1488 1486 1475 1471 1471 1472 1472 1471 1469 1468 1467 1467 1466 1465 1465 1464 1462 1461 1460 1459 1457 1456 1455 1454 1452 1451 1450 1448 1447 1445 1444 1443 1442 1440 1439 1438 1437 1437 1436 1436 1435 1435 1435
1492 1491 1482 1472 1470 1471 1472 1471 1468 1467 1466 1465 1465 1465 1464 1463 1462 1461 1460 1458 1457 1456 1455 1453 1452 1450 1449 1448 1447 1445 1444 1442 1441 1440 1439 1437 1436 1435 1435 1434 1433 1433 1432 1432
1491 1487 1480 1468 1467 1467 1470 1469 1464 1464 1464 1463 1464 1466 1463 1461 1460 1459 1458 1456 1455 1454 1453 1451 1450 1449 1448 1446 1445 1443 1442 1441 1440 1439 1437 1436 1435 1434 1433 1432 1431 1430 1430 1430
1488 1486 1477 1468 1466 1467 1473 1467 1462 1461 1461 1461 1462 1462 1461 1459 1458 1457 1456 1455 1453 1452 1451 1450 1448 1447 1446 1445 1443 1442 1441 1439 1438 1437 1436 1434 1433 1432 1431 1430 1429 1429 1428 1428
1485 1483 1475 1466 1466 1467 1465 1461 1460 1460 1460 1460 1459 1459 1458 1457 1456 1455 1454 1453 1452 1450 1449 1448 1447 1446 1444 1443 1442 1441 1439 1438 1437 1435 1434 1433 1432 1431 1430 1429 1428 1427 1427 1426
1473 1470 1464 1462 1461 1460 1460 1460 1458 1458 1458 1458 1457 1457 1456 1455 1455 1454 1452 1451 1450 1449 1448 1447 1446 1445 1443 1443 1441 1440 1438 1437 1436 1434 1433 1432 1431 1429 1428 1427 1426 1426 1425 1425
1469 1463 1461 1460 1459 1459 1458 1458 1457 1457 1456 1456 1455 1455 1454 1454 1453 1452 1451 1450 1449 1448 1446 1445 1444 1443 1442 1441 1440 1438 1437 1436 1434 1433 1432 1430 1429 1428 1427 1426 1425 1425 1424 1423
1465 1460 1458 1457 1456 1456 1456 1455 1455 1455 1454 1454 1453 1452 1452 1452 1452 1451 1450 1449 1448 1447 1445 1444 1443 1442 1441 1440 1439 1437 1436 1435 1433 1432 1431 1429 1428 1427 1426 1426 1425 1424 1423 1423
1458 1455 1456 1454 1454 1454 1453 1453 1453 1452 1452 1452 1451 1451 1450 1450 1450 1449 1448 1448 1447 1446 1444 1443 1442 1441 1440 1439 1437 1436 1435 1433 1432 1431 1429 1428 1427 1426 1426 1425 1424 1423 1423 1422
1452 1451 1452 1451 1451 1451 1451 1450 1450 1450 1450 1450 1449 1449 1449 1448 1448 1447 1447 1446 1445 1444 1443 1442 1441 1440 1439 1438 1436 1435 1433 1432 1431 1430 1428 1427 1426 1425 1424 1424 1423 1423 1422 1421
1449 1449 1449 1449 1449 1449 1449 1448 1448 1448 1448 1448 1447 1447 1447 1446 1446 1445 1444 1444 1443 1442 1442 1441 1439 1438 1437 1436 1435 1434 1433 1431 1430 1429 1428 1427 1426 1425 1424 1422 1421 1421 1421 1420
1447 1447 1447 1446 1447 1447 1446 1446 1446 1446 1446 1446 1446 1445 1445 1444 1444 1443 1442 1442 1441 1440 1440 1439 1438 1437 1436 1435 1434 1433 1431 1430 1429 1428 1427 1426 1425 1424 1423 1422 1421 1420 1419 1419
1444 1444 1444 1444 1444 1444 1444 1444 1444 1444 1444 1444 1444 1444 1443 1443 1442 1441 1441 1440 1439 1438 1438 1437 1436 1435 1434 1433 1432 1431 1430 1429 1428 1427 1426 1425 1425 1423 1422 1421 1420 1420 1419 1418
1441 1441 1441 1441 1441 1441 1442 1442 1442 1442 1442 1442 1442 1442 1441 1441 1440 1439 1439 1438 1438 1437 1436 1435 1434 1433 1432 1432 1431 1430 1429 1428 1427 1426 1425 1425 1424 1423 1422 1421 1420 1419 1418 1418
1438 1438 1438 1438 1438 1439 1439 1440 1440 1440 1440 1440 1440 1440 1439 1439 1438 1438 1437 1436 1436 1435 1434 1434 1433 1432 1431 1430 1429 1428 1428 1427 1426 1425 1425 1424 1423 1422 1421 1420 1419 1418 1417 1417
1436 1436 1436 1436 1436 1437 1437 1438 1438 1438 1438 1438 1438 1438 1437 1437 1437 1436 1435 1435 1434 1433 1433 1432 1431 1430 1430 1429 1428 1427 1427 1426 1425 1424 1424 1423 1422 1421 1420 1419 1418 1417 1417 1416
1434 1435 1435 1435 1435 1435 1436 1436 1436 1437 1437 1437 1436 1436 1436 1435 1435 1434 1434 1433 1433 1432 1431 1430 1430 1429 1428 1428 1427 1426 1425 1425 1424 1423 1422 1422 1421 1420 1419 1418 1417 1416 1416 1415
1433 1433 1433 1433 1434 1434 1434 1434 1434 1435 1435 1435 1435 1434 1434 1434 1433 1433 1432 1432 1432 1431 1430 1429 1428 1428 1427 1427 1426 1425 1424 1423 1423 1422 1421 1420 1420 1419 1418 1417 1416 1415 1414 1414
1432 1432 1432 1432 1432 1433 1433 1433 1433 1433 1433 1433 1433 1433 1433 1432 1432 1432 1432 1431 1430 1429 1429 1428 1427 1427 1426 1425 1425 1424 1423 1422 1421 1421 1420 1419 1418 1417 1417 1416 1415 1414 1413 1413
1431 1431 1431 1431 1431 1431 1431 1431 1432 1432 1432 1432 1432 1432 1432 1432 1431 1431 1430 1430 1429 1428 1428 1427 1426 1426 1425 1424 1423 1423 1422 1421 1420 1420 1419 1418 1417 1416 1416 1415 1414 1413 1412 1411
1430 1430 1430 1430 1430 1430 1430 1430 1430 1431 1431 1431 1431 1431 1431 1431 1430 1430 1429 1429 1428 1427 1427 1426 1425 1425 1424 1423 1422 1422 1421 1420 1419 1418 1418 1417 1416 1415 1414 1414 1413 1412 1411 1410
1428 1428 1428 1428 1428 1429 1429 1429 1429 1430 1430 1430 1430 1430 1430 1430 1429 1429 1428 1428 1427 1427 1426 1425 1425 1424 1423 1422 1421 1420 1420 1419 1418 1417 1416 1415 1415 1414 1413 1412 1411 1411 1410 1409
1427 1427 1427 1427 1427 1427 1427 1428 1428 1428 1428 1428 1429 1429 1429 1428 1428 1428 1427 1427 1426 1426 1425 1424 1424 1423 1422 1421 1420 1419 1419 1418 1417 1416 1415 1414 1413 1413 1412 1411 1410 1409 1408 1407
1425 1426 1426 1426 1426 1426 1426 1426 1427 1427 1427 1427 1427 1427 1427 1427 1426 1426 1426 1425 1425 1424 1424 1423 1423 1422 1421 1420 1419 1419 1418 1417 1416 1415 1414 1413 1412 1411 1410 1409 1408 1407 1406 1405